Location: M?digepalle
(16.1753°N, 80.3496°E)
Time: 08:12:17
(UTC+00:00)

Atlas Centaur 2 - Pass Details

Date: 29 October 2020
Orbit: 459 x 1309 km, 30.4° (Epoch: 27 November)

Event Time Altitude Azimuth Distance (km) Brightness Sun altitude
Rises 13:52:40 0° 295° (WNW) 4,195 6.7 -25.1°
Reaches altitude 10° 13:56:01 10° 306° (NW) 3,284 5.8 -25.9°
Maximum altitude 14:03:12 30° 4° (N) 2,150 4.1 -27.6°
Enters shadow 14:04:37 29° 20° (NNE) 2,199 4.0 -28.0°
